KB4SHP Weather Reports


Display with metric or nautical units.
time (UTC)temp
F
wind
direction
speed
MPH
gust
MPH
rain 1hr
in
rain 24hr
in
rain mn
in
humidity
%
barometer
mb
20260503021504 49 294 0.0 0.0 0.00 0.00 0.00 54 1015.6
20260503020006 51 294 0.0 1.0 0.00 0.00 0.00 51 1015.5
20260503014504 52 294 0.0 1.0 0.00 0.00 0.00 49 1015.3
20260503013005 53 297 0.0 3.0 0.00 0.00 0.00 47 1015.1
20260503011504 53 320 0.0 1.0 0.00 0.00 0.00 46 1014.9
20260503010006 54 308 0.0 3.0 0.00 0.00 0.00 45 1014.7
20260503004505 55 10 0.0 2.0 0.00 0.00 0.00 44 1014.4
20260503003005 56 288 0.0 1.0 0.00 0.00 0.00 43 1014.2
20260503001505 57 293 0.0 2.0 0.00 0.00 0.00 42 1013.8
20260503000004 57 295 0.0 4.0 0.00 0.00 0.00 42 1013.7
20260502234505 58 293 0.0 1.0 0.00 0.00 0.00 41 1013.5
20260502233005 58 23 1.0 3.0 0.00 0.00 0.00 41 1013.3
20260502231505 58 297 1.0 3.0 0.00 0.00 0.00 40 1013.1
20260502223005 59 231 0.0 0.0 0.00 0.00 0.00 56 1012.6
20260502221504 59 231 0.0 0.0 0.00 0.00 0.00 56 1012.4
20260502220007 60 231 0.0 0.0 0.00 0.00 0.00 49 1012.2
20260502214505 61 237 0.0 1.0 0.00 0.00 0.00 43 1012.0
20260502213003 62 131 0.0 0.0 0.00 0.00 0.00 43 1012.0
20260502211505 62 151 0.0 0.0 0.00 0.00 0.00 41 1011.8
20260502210003 62 153 0.0 1.0 0.00 0.00 0.00 43 1011.8
20260502203003 62 72 0.0 1.0 0.00 0.00 0.00 41 1011.9
20260502201503 61 55 1.0 4.0 0.00 0.00 0.00 42 1012.1
20260502194505 61 256 0.0 4.0 0.00 0.00 0.00 39 1012.7
20260502193005 61 136 0.0 3.0 0.00 0.00 0.00 43 1012.8
20260502191504 59 9 0.0 1.0 0.00 0.00 0.00 44 1013.1
20260502190003 58 63 0.0 1.0 0.00 0.00 0.00 43 1013.3
20260502184503 56 79 0.0 2.0 0.00 0.00 0.00 47 1013.5
20260502183002 56 290 0.0 1.0 0.00 0.00 0.00 46 1013.7
20260502163003 52 29 0.0 3.0 0.00 0.00 0.00 51 1015.4
20260502161503 52 44 0.0 3.0 0.00 0.00 0.00 53 1015.7
20260502151503 52 299 0.0 4.0 0.00 0.00 0.00 53 1015.8
20260502123004 51 309 0.0 1.0 0.00 0.00 0.00 71 1014.6
20260502121502 51 344 0.0 0.0 0.00 0.00 0.00 75 1014.6
20260502110004 49 51 0.0 0.0 0.00 0.00 0.00 88 1014.4
20260502103002 49 50 0.0 0.0 0.00 0.00 0.00 87 1014.3
20260502101503 49 50 0.0 0.0 0.00 0.00 0.00 85 1014.3
20260502091502 50 50 0.0 1.0 0.00 0.00 0.00 85 1014.1
20260502071503 50 217 0.0 0.0 0.00 0.00 0.00 88 1013.3
20260502070005 50 217 0.0 0.0 0.00 0.00 0.00 87 1013.6
20260502064502 51 217 0.0 0.0 0.00 0.00 0.00 87 1013.7
20260502063002 51 217 0.0 0.0 0.00 0.00 0.00 86 1013.7
20260502060002 51 217 0.0 0.0 0.00 0.00 0.00 86 1013.7
20260502053001 51 253 0.0 1.0 0.00 0.00 0.00 87 1013.7
20260502051502 51 285 0.0 0.0 0.00 0.00 0.00 87 1013.8
20260502050004 51 285 0.0 0.0 0.00 0.00 0.00 86 1013.8
20260502044504 52 285 0.0 0.0 0.00 0.00 0.00 85 1013.8
20260502043004 52 285 0.0 1.0 0.00 0.00 0.00 84 1014.1
20260502041503 52 307 0.0 1.0 0.00 0.00 0.00 85 1014.0
20260502040004 52 218 0.0 0.0 0.00 0.00 0.00 84 1013.6
20260502034503 52 217 0.0 0.0 0.00 0.00 0.00 84 1013.8
20260502033003 53 217 0.0 0.0 0.00 0.00 0.00 82 1013.7
20260502031504 54 217 0.0 0.0 0.00 0.00 0.00 81 1013.6
20260502024503 55 217 0.0 0.0 0.00 0.00 0.00 78 1013.7